Regional Weather Roundup
Issued by NWS Green Bay, WI

Home | Current Version | Previous Version | Text Only | Print | Product List | Glossary On
Versions: 1 2 3 4 5 6 7 8 9 10 11 12 13 14 15 16 17 18 19 20 21 22 23 24 25 26 27 28 29 30 31 32 33 34 35 36 37 38 39 40 41 42 43 44 45 46 47 48 49 50
000
ASUS43 KGRB 301011
RWRGRB

NORTH-CENTRAL AND NORTHEAST WISCONSIN REGIONAL WEATHER ROUNDUP
NATIONAL WEATHER SERVICE GREEN BAY WI
500 AM CDT MON MAY 30 2016

WIZ005-009-010>012-018-019-301100-
NORTH CENTRAL WISCONSIN

CITY           SKY/WX    TMP DP  RH WIND       PRES   REMARKS
IRONWOOD       CLEAR     52  50  93 W7        29.93R
MANITOWISH WTR NOT AVBL
ARBOR VITAE    CLEAR     52  51  96 CALM      29.98S
EAGLE RIVER      N/A     49  49 100 W6        29.96S FOG
LAND O LAKES   CLEAR     51  51 100 W3        29.97R
RHINELANDER    CLEAR     49  48  97 W5        29.98S FOG
PHILLIPS       CLEAR     50  49  97 CALM      29.98S
ANTIGO         FOG       48  48 100 CALM      29.99R VSB 3/4
TOMAHAWK       FOG       49  48  97 CALM      29.99S VSB 3/4
MERRILL          N/A     47  47 100 CALM      29.99S FOG
$$

WIZ013-073-301100-
NORTHEAST WISCONSIN

CITY           SKY/WX    TMP DP  RH WIND       PRES   REMARKS
IRON MOUNTAIN  CLEAR     53  50  89 CALM      29.93R
MARINETTE      CLEAR     57  55  94 CALM      29.95S
OCONTO         CLEAR    N/A N/A N/A CALM      29.94S
$$

WIZ017-030-035>037-045-301100-
CENTRAL WISCONSIN

CITY           SKY/WX    TMP DP  RH WIND       PRES   REMARKS
MEDFORD        CLEAR     53  53 100 W5        30.00R
WAUSAU         CLOUDY    57  55  93 CALM      29.97R
MOSINEE        PTCLDY    55  55 100 W5        30.00R
MARSHFIELD     CLEAR     58  55  90 W7        29.99R
WISC RAPIDS    CLEAR     56  54  93 CALM      30.00R
STEVENS POINT  FOG       51  51 100 CALM      30.00R VSB 3/4
WAUPACA        CLEAR     57  57  99 CALM      29.98S
SHAWANO        CLEAR     58  55  90 W3        29.97S
CLINTONVILLE   CLEAR     55  54  94 CALM      29.97S
WAUTOMA        PTCLDY   N/A N/A N/A CALM      29.99R
$$

WIZ038-039-048-051-301100-
FOX VALLEY

CITY           SKY/WX    TMP DP  RH WIND       PRES   REMARKS
NWS GREEN BAY  CLEAR     58  56  93 W5        29.96S
APPLETON       PTCLDY    57  55  94 W9        29.96S
OSHKOSH        CLEAR     61  57  87 W6        29.98R
FOND DU LAC    CLEAR     57  56  96 S3        29.99R
$$

WIZ022-050-052-301100-
EAST CENTRAL WISCONSIN

CITY           SKY/WX    TMP DP  RH WIND       PRES   REMARKS
EPHRAIM        FAIR      56  56  97 W5        29.94S
STURGEON BAY   NOT AVBL
MANITOWOC      CLEAR     62  58  86 W6        29.97R
SHEBOYGAN      CLEAR     56  54  93 SW3       29.97S
$$

LMZ563-521-522-541>543-301100-
LAKESHORE

STATION/POSITION TIME  TEMP    WIND        PRES    VSBY  WAVE
                       AIR SEA DIR/SP/G                  HT/PER
                 (UTC) (F)     (DEG/KT/KT) (MB)    (MI)  (FT/S)
SHEBOYGAN LKSHOR 1000   62     260/  7/  8 1014.8R
KEWAUNEE LKSHORE 0900   60     300/  4/  4 1013.7R
NORTHPORT PIER   0900   60     250/  4/  7 1013.5R
N MID LAKE BUOY  0950   52 47  240/  6/  6 1013.5R         1/ 4
CHAMBERS ISLAND  0900   60     220/  5/  9 1013.9R
MENOMINEE LKSHOR 0900   62     250/  6/  8 1012.8R
$$



USA.gov is the U.S. government's official web portal to all federal, state and local government web resources and services.